Regional Weather Roundup
Issued by NWS

Home | Current Version | Previous Version | Graphics & Text | Print | Product List | Glossary On
Versions: 1 2 3 4 5 6 7 8 9 10 11 12 13 14 15 16 17 18 19 20 21 22 23 24 25 26 27
000
ASUS45 KTFX 221110
RWRMT
MONTANA REGIONAL WEATHER ROUNDUP
NATIONAL WEATHER SERVICE GREAT FALLS MT
500 AM MDT FRI JUL 22 2016

NOTE: "FAIR" INDICATES FEW OR NO CLOUDS BELOW 12000 FEET WITH NO
SIGNIFICANT WEATHER AND/OR OBSTRUCTIONS TO VISIBILITY.

MTZ001>007-043-221200-
WEST OF THE DIVIDE

CITY           SKY/WX    TMP DP  RH WIND       PRES   REMARKS
KALISPELL      CLEAR     53  47  79 N7        29.97F
MISSOULA       CLEAR     56  46  69 CALM      30.01S
BUTTE          CLEAR     53  37  54 S3        30.15S
MULLAN PASS    CLEAR     65  34  31 SE5       30.14F
ANACONDA         N/A     55  37  50 SW6       30.10F
DEER LODGE       N/A     55  43  62 CALM      30.12R
EUREKA           N/A     55  43  62 N7        30.02F
HAMILTON         N/A     57  45  62 CALM      30.02S
LIBBY            N/A     57  45  62 CALM      30.05R
PLAINS           N/A     53  43  69 CALM      29.99S
RONAN            N/A     53  47  80 CALM      30.03S
$$

MTZ008-052>055-221200-
SOUTHWEST MONTANA

CITY           SKY/WX    TMP DP  RH WIND       PRES   REMARKS
BOZEMAN        PTCLDY    56  46  69 CALM      30.06S
DILLON         CLEAR     60  33  36 S9        30.10S
W YELLOWSTONE  CLOUDY    52  36  54 CALM      30.28R
ENNIS          CLEAR     64  34  32 CALM      30.15S
THREE FORKS      N/A     52  33  48 CALM      30.04R
TWIN BRIDGES     N/A     54  41  61 SE1       30.08R
$$

MTZ009-010-012-014-046-048-049-054-221200-
EAST SLOPES AND CENTRAL MONTANA

CITY           SKY/WX    TMP DP  RH WIND       PRES   REMARKS
CUT BANK       CLEAR     49  41  74 NW12      30.05F
GREAT FALLS    CLOUDY    58  44  60 W6        30.02S
MALMSTROM AFB  CLOUDY    64  46  52 W5        30.02R
HELENA         CLEAR     70  35  27 SW8       30.04S
CHOTEAU          N/A     55  39  54 SW6       30.07S
CONRAD           N/A     47  43  86 CALM      30.05F
$$

MTZ011-013-016-021-045-047-050-051-221200-
NORTH CENTRAL MONTANA

CITY           SKY/WX    TMP DP  RH WIND       PRES   REMARKS
HAVRE          CLOUDY    68  49  50 MISG      29.99F
LEWISTOWN      PTCLDY    67  49  52 E8        30.07R
N BAR RANCH      N/A     61  48  63 W6        30.12S
CHINOOK          N/A     59  54  82 NW5       30.07R
$$

MTZ017>020-022>027-061-062-221200-
NORTHEAST MONTANA

CITY           SKY/WX    TMP DP  RH WIND       PRES   REMARKS
GLASGOW        CLOUDY    67  54  63 E15       30.00F
JORDAN           N/A     58  51  78 W3        30.01S
SIDNEY         CLEAR     63  54  72 N3        30.03R
WOLF POINT     CLEAR     61  55  81 CALM      30.04R
PLENTYWOOD       N/A     59  54  82 N5        30.07S
POPLAR           N/A     61  55  82 N6        30.04R
SCOBEY           N/A     52  45  77 CALM      30.06S
$$

MTZ028>42-056>058-221200-
SOUTHCENTRAL AND SOUTHEAST MONTANA

CITY           SKY/WX    TMP DP  RH WIND       PRES   REMARKS
BAKER          CLEAR     60  57  89 SE7       30.05F
BILLINGS       PTCLDY    68  44  42 N5        30.01S
LIVINGSTON     PTCLDY    63  41  44 VRB3      30.08S
MILES CITY     CLOUDY    69  54  58 NE10      30.00S
EKALAKA          N/A     65  54  67 SE1       30.04S
FORSYTH          N/A     70  54  56 E6        29.99S
LAUREL           N/A     65  40  39 W1        30.01S
ROUNDUP          N/A     65  48  53 CALM      29.95S
$$

REGIONAL REPORTS...DAKOTAS

CITY           SKY/WX    TMP DP  RH WIND       PRES   REMARKS
WILLISTON      CLEAR     62  55  77 NE5       30.05R
MINOT          CLEAR     64  60  87 SW6       30.03R
DICKINSON      CLEAR     63  59  87 NE7       30.04S
BEACH            N/A     59  59 100 SE3       30.07F
CROSBY           N/A     55  55 100 SW5       30.08R
WATFORD CITY     N/A     59  54  82 N6        30.05R
BISMARCK       CLEAR     65  64  97 E6        30.03R
GRAND FORKS    PTCLDY    64  62  93 CALM      29.97R
FARGO          PTCLDY    64  62  93 CALM      29.99R
BUFFALO SD       N/A     63  57  81 CALM      29.99R
RAPID CITY     CLOUDY    67  60  78 W6        30.05F
$$

REGIONAL REPORTS...WYOMING/IDAHO/WASHINGTON

CITY           SKY/WX    TMP DP  RH WIND       PRES   REMARKS
GILLETTE       CLEAR     72  43  35 CALM      30.09S
SHERIDAN       CLEAR     62  46  55 CALM      30.05S
BUFFALO WY     CLEAR     68  37  32 VRB3      30.13F
CODY           CLEAR     70  34  26 SW7       30.12S
YELLOWSTONE LA   N/A     45  37  73 NW3       30.40S
IDAHO FALLS    MOCLDY    64  50  60 CALM      30.10R
SALMON         MOCLDY    55  39  54 CALM      30.04S
BOISE          MOCLDY    71  37  28 VRB3      30.01R
SPOKANE        MOCLDY    65  52  62 SW7       29.96R
$$

REGIONAL REPORTS...ALBERTA

CITY           SKY/WX    TMP DP  RH WIND       PRES   REMARKS
EDMONTON       PTCLDY    57  52  82 SW5       30.02S
CALGARY        CLEAR     57  48  72 NW5       30.08S
LETHBRIDGE     PTCLDY    52  46  82 SW10G20   30.02S
MEDICINE HAT   CLEAR     52  46  82 CALM      29.99S
CARDSTON         N/A     50  41  71 W3          N/A
MILK RIVER       N/A     48  45  87 NW7         N/A
ONEFOUR          N/A     55  43  62 NE10        N/A
$$

REGIONAL REPORTS...SASKATCHEWAN

CITY           SKY/WX    TMP DP  RH WIND       PRES   REMARKS
SWIFT CURRENT  CLEAR     59  48  67 SE6       30.04F
REGINA         CLEAR     55  54  94 N3        30.04S
SASKATOON      CLEAR     52  52 100 W5        30.04R
CYPRESS HILLS    N/A     57  41  54 SE7         N/A
VAL MARIE        N/A     50  48  93 NE8         N/A
ROCKGLEN         N/A     59  48  67 S5          N/A
$$




USA.gov is the U.S. government's official web portal to all federal, state and local government web resources and services.